timestamp,surface_pressure_avg,surface_temp_avg,battery_voltage,lat,long
2023-01-08 00:09:00+00:00,335.8596,3.7,12.57,47.84626,-54.09684
2023-01-08 00:19:00+00:00,330.9213,3.7,12.57,47.84626,-54.09684
2023-01-08 00:29:00+00:00,332.4498,3.7,12.57,47.84626,-54.09684
2023-01-08 00:39:00+00:00,333.1963,3.7,12.57,47.84626,-54.09684
2023-01-08 00:49:00+00:00,330.233,3.7,12.57,47.84626,-54.09684
2023-01-08 00:59:00+00:00,329.3763,3.7,12.57,47.84626,-54.09684
2023-01-08 01:09:00+00:00,327.8130000000001,3.69,12.57,47.84626,-54.09684
2023-01-08 01:19:00+00:00,323.028,3.67,12.57,47.84626,-54.09684
2023-01-08 01:29:00+00:00,318.0298,3.6,12.57,47.84626,-54.09684
2023-01-08 01:39:00+00:00,317.8914,3.6,12.57,47.84626,-54.09684
2023-01-08 01:49:00+00:00,315.7645,3.6,12.57,47.84626,-54.09684
2023-01-08 01:59:00+00:00,313.0664,3.6,12.57,47.84626,-54.09684
2023-01-08 02:09:00+00:00,311.9798,3.6,12.57,47.84626,-54.09684
2023-01-08 02:19:00+00:00,311.9363,3.56,12.57,47.84626,-54.09684
2023-01-08 02:29:00+00:00,307.228,3.5,12.57,47.84626,-54.09684
2023-01-08 02:39:00+00:00,301.8097,3.46,12.57,47.84626,-54.09684
2023-01-08 02:49:00+00:00,300.573,3.45,12.57,47.84626,-54.09684
2023-01-08 02:59:00+00:00,295.9047,3.4,12.57,47.84626,-54.09684
2023-01-08 03:09:00+00:00,285.228,3.4,12.57,47.84626,-54.09684
2023-01-08 03:19:01+00:00,280.0531,3.41,12.57,47.84626,-54.09684
2023-01-08 03:29:01+00:00,277.3796,3.4,12.57,47.84626,-54.09684
2023-01-08 03:39:01+00:00,270.9731,3.3,12.57,47.84626,-54.09684
2023-01-08 03:49:01+00:00,263.5131,3.26,12.57,47.84626,-54.09684
2023-01-08 03:59:01+00:00,258.4414,3.23,12.57,47.84626,-54.09684
2023-01-08 04:09:01+00:00,248.7148,3.2,12.57,47.84626,-54.09684
2023-01-08 04:19:00+00:00,238.5331,3.2,12.57,47.84626,-54.09684
2023-01-08 04:29:00+00:00,235.1897,3.2,12.57,47.84626,-54.09684
2023-01-08 04:39:00+00:00,230.2298,3.2,12.57,47.84626,-54.09684
2023-01-08 04:49:00+00:00,221.9364,3.3,12.57,47.84626,-54.09684
2023-01-08 04:59:00+00:00,218.528,3.3,12.57,47.84626,-54.09684
2023-01-08 05:09:00+00:00,222.1098,3.4,12.57,47.84626,-54.09684
2023-01-08 05:19:01+00:00,218.5397,3.49,12.49,47.84626,-54.09684
2023-01-08 05:29:01+00:00,213.1115,3.5,12.49,47.84626,-54.09684
2023-01-08 05:39:01+00:00,215.3115,3.5,12.49,47.84626,-54.09684
2023-01-08 05:49:01+00:00,216.9048,3.49,12.49,47.84626,-54.09684
2023-01-08 05:59:01+00:00,213.4115,3.49,12.49,47.84626,-54.09684
2023-01-08 06:09:01+00:00,210.4615,3.5,12.49,47.84626,-54.09684
2023-01-08 06:19:00+00:00,210.0864,3.5,12.49,47.84626,-54.09684
2023-01-08 06:29:00+00:00,209.7098,3.5,12.49,47.84626,-54.09684
2023-01-08 06:39:00+00:00,212.2314,3.5,12.49,47.84626,-54.09684
2023-01-08 06:49:00+00:00,216.5198,3.5,12.49,47.84626,-54.09684
2023-01-08 06:59:00+00:00,218.5498,3.5,12.49,47.84626,-54.09684
2023-01-08 07:09:00+00:00,219.6731,3.5,12.49,47.84626,-54.09684
2023-01-08 07:19:00+00:00,223.3981,3.5,12.49,47.84626,-54.09684
2023-01-08 07:29:00+00:00,228.2364,3.5,12.49,47.84626,-54.09684
2023-01-08 07:39:00+00:00,231.1697,3.5,12.49,47.84626,-54.09684
2023-01-08 07:49:00+00:00,235.1897,3.5,12.49,47.84626,-54.09684
2023-01-08 07:59:00+00:00,243.2131,3.5,12.49,47.84626,-54.09684
2023-01-08 08:09:00+00:00,247.4114,3.5,12.49,47.84626,-54.09684
2023-01-08 08:19:00+00:00,251.8647,3.5,12.49,47.84626,-54.09684
2023-01-08 08:29:00+00:00,257.9031,3.5,12.49,47.84626,-54.09684
2023-01-08 08:39:00+00:00,263.3665,3.5,12.49,47.84626,-54.09684
2023-01-08 08:49:00+00:00,265.0931,3.5,12.49,47.84626,-54.09684
2023-01-08 08:59:00+00:00,270.3814,3.5,12.49,47.84626,-54.09684
2023-01-08 09:09:00+00:00,274.0764,3.49,12.49,47.84626,-54.09684
2023-01-08 09:19:00+00:00,277.1364,3.49,12.49,47.84626,-54.09684
2023-01-08 09:29:00+00:00,282.8364,3.4,12.49,47.84626,-54.09684
2023-01-08 09:39:00+00:00,288.3263,3.4,12.49,47.84626,-54.09684
2023-01-08 09:49:00+00:00,288.6631,3.42,12.49,47.84626,-54.09684
2023-01-08 09:59:00+00:00,294.2197,3.53,12.49,47.84626,-54.09684
2023-01-08 10:09:00+00:00,305.093,3.7,12.49,47.84626,-54.09684
2023-01-08 10:19:00+00:00,311.1513,3.74,12.49,47.84626,-54.09684
2023-01-08 10:29:00+00:00,313.2247,3.79,12.49,47.84626,-54.09684
2023-01-08 10:39:00+00:00,323.328,3.7,12.49,47.84626,-54.09684
2023-01-08 10:49:00+00:00,336.0080000000001,3.7,12.49,47.84626,-54.09684
2023-01-08 10:59:00+00:00,339.9796,3.74,12.49,47.84626,-54.09684
2023-01-08 11:09:00+00:00,341.8846,3.77,12.49,47.84626,-54.09684
2023-01-08 11:19:00+00:00,352.7245,3.77,12.49,47.84626,-54.09684
2023-01-08 11:29:00+00:00,361.778,3.75,12.49,47.84626,-54.09684
2023-01-08 11:39:00+00:00,363.1678,3.79,12.49,47.84626,-54.09684
2023-01-08 11:49:00+00:00,366.3363,3.75,12.49,47.84626,-54.09684
2023-01-08 11:59:00+00:00,372.2214,3.73,12.49,47.84626,-54.09684
2023-01-08 12:09:00+00:00,374.5663,3.73,12.49,47.84626,-54.09684
2023-01-08 12:19:00+00:00,375.463,3.7,12.49,47.84626,-54.09684
2023-01-08 12:29:00+00:00,374.5563,3.7,12.49,47.84626,-54.09684
2023-01-08 12:39:00+00:00,370.8962,3.71,12.49,47.84626,-54.09684
2023-01-08 12:49:00+00:00,370.733,3.7,12.49,47.84626,-54.09684
2023-01-08 12:59:00+00:00,371.7563,3.7,12.49,47.84626,-54.09684
2023-01-08 13:09:00+00:00,369.7646,3.7,12.49,47.84626,-54.09684
2023-01-08 13:19:00+00:00,365.0013,3.7,12.49,47.84626,-54.09684
2023-01-08 13:29:00+00:00,365.348,3.7,12.49,47.84626,-54.09684
2023-01-08 13:39:00+00:00,363.5746,3.7,12.49,47.84626,-54.09684
2023-01-08 13:49:00+00:00,363.8063,3.7,12.49,47.84626,-54.09684
2023-01-08 13:59:00+00:00,361.8896,3.7,12.49,47.84626,-54.09684
2023-01-08 14:09:00+00:00,358.6412,3.73,12.49,47.84626,-54.09684
2023-01-08 14:19:00+00:00,357.718,3.8,12.57,47.84626,-54.09684
2023-01-08 14:29:00+00:00,355.2863,3.8,12.57,47.84626,-54.09684
2023-01-08 14:39:00+00:00,352.9229,3.8,12.57,47.84626,-54.09684
2023-01-08 14:49:00+00:00,347.6629,3.8,12.57,47.84626,-54.09684
2023-01-08 14:59:00+00:00,341.4980000000001,3.8,12.57,47.84626,-54.09684
2023-01-08 15:09:00+00:00,339.3646,3.8,12.57,47.84626,-54.09684
2023-01-08 15:19:00+00:00,332.8029,3.79,12.65,47.84626,-54.09684
2023-01-08 15:29:00+00:00,324.298,3.75,12.65,47.84626,-54.09684
2023-01-08 15:39:00+00:00,317.9614,3.77,12.65,47.84626,-54.09684
2023-01-08 15:49:00+00:00,313.2863,3.78,12.65,47.84626,-54.09684
2023-01-08 15:59:00+00:00,305.4347,3.8,12.65,47.84626,-54.09684
2023-01-08 16:09:00+00:00,296.1597,3.8,12.65,47.84626,-54.09684
2023-01-08 16:19:01+00:00,288.608,3.8,12.89,47.84626,-54.09684
2023-01-08 16:29:01+00:00,280.488,3.8,12.89,47.84626,-54.09684
2023-01-08 16:39:01+00:00,270.0614,3.8,12.89,47.84626,-54.09684
2023-01-08 16:49:01+00:00,261.1898,3.8,12.89,47.84626,-54.09684
2023-01-08 16:59:01+00:00,256.0881,3.81,12.89,47.84626,-54.09684
2023-01-08 17:09:01+00:00,248.9114,3.88,12.89,47.84626,-54.09684
2023-01-08 17:19:01+00:00,240.2615,3.86,12.89,47.84626,-54.09684
2023-01-08 17:29:01+00:00,231.8164,3.8,12.89,47.84626,-54.09684
2023-01-08 17:39:01+00:00,229.4665,3.85,12.89,47.84626,-54.09684
2023-01-08 17:49:01+00:00,225.1698,3.89,12.89,47.84626,-54.09684
2023-01-08 17:59:01+00:00,219.0248,3.89,12.89,47.84626,-54.09684
2023-01-08 18:09:01+00:00,217.5231,3.89,12.89,47.84626,-54.09684
2023-01-08 18:19:00+00:00,218.6831,3.89,12.73,47.84626,-54.09684
2023-01-08 18:29:00+00:00,215.4448,3.89,12.73,47.84626,-54.09684
2023-01-08 18:39:00+00:00,211.6081,3.9,12.73,47.84626,-54.09684
2023-01-08 18:49:00+00:00,214.1731,3.89,12.73,47.84626,-54.09684
2023-01-08 18:59:00+00:00,216.4832,3.87,12.73,47.84626,-54.09684
2023-01-08 19:09:00+00:00,216.6131,3.89,12.73,47.84626,-54.09684
2023-01-08 19:19:00+00:00,219.2348,3.9,12.65,47.84626,-54.09684
2023-01-08 19:29:00+00:00,221.9814,3.9,12.65,47.84626,-54.09684
2023-01-08 19:39:00+00:00,219.7715,3.9,12.65,47.84626,-54.09684
2023-01-08 19:49:00+00:00,220.2448,3.9,12.65,47.84626,-54.09684
2023-01-08 19:59:00+00:00,226.4348,3.9,12.65,47.84626,-54.09684
2023-01-08 20:09:00+00:00,231.3715,3.9,12.65,47.84626,-54.09684
2023-01-08 20:19:00+00:00,233.5614,3.9,12.57,47.84626,-54.09684
2023-01-08 20:29:00+00:00,236.1348,3.9,12.57,47.84626,-54.09684
2023-01-08 20:39:00+00:00,236.1414,3.9,12.57,47.84626,-54.09684
2023-01-08 20:49:00+00:00,240.2264,3.9,12.57,47.84626,-54.09684
2023-01-08 20:59:00+00:00,247.9631,3.9,12.57,47.84626,-54.09684
2023-01-08 21:09:00+00:00,251.7431,3.9,12.57,47.84626,-54.09684
2023-01-08 21:19:01+00:00,251.5814,3.9,12.57,47.84626,-54.09684
2023-01-08 21:29:01+00:00,258.1081,3.9,12.57,47.84626,-54.09684
2023-01-08 21:39:01+00:00,267.5831,3.9,12.57,47.84626,-54.09684
2023-01-08 21:49:01+00:00,274.3147,3.9,12.57,47.84626,-54.09684
2023-01-08 21:59:01+00:00,276.4948,3.9,12.57,47.84626,-54.09684
2023-01-08 22:09:01+00:00,282.4214,3.9,12.57,47.84626,-54.09684
2023-01-08 22:19:00+00:00,289.1247,3.9,12.49,47.84626,-54.09684
2023-01-08 22:29:00+00:00,293.553,3.9,12.49,47.84626,-54.09684
2023-01-08 22:39:00+00:00,294.6296,3.9,12.49,47.84626,-54.09684
2023-01-08 22:49:00+00:00,300.923,3.88,12.49,47.84626,-54.09684
2023-01-08 22:59:00+00:00,307.0213,3.88,12.49,47.84626,-54.09684
2023-01-08 23:09:00+00:00,311.8931,3.9,12.49,47.84626,-54.09684
2023-01-08 23:19:00+00:00,315.7447,3.9,12.49,47.84626,-54.09684
2023-01-08 23:29:00+00:00,321.9063,3.9,12.49,47.84626,-54.09684
2023-01-08 23:39:00+00:00,326.1547,3.9,12.49,47.84626,-54.09684
2023-01-08 23:49:00+00:00,330.1479,3.7,12.49,47.84626,-54.09684
2023-01-08 23:59:00+00:00,335.24300000000005,3.6,12.49,47.84626,-54.09684
